Regional Weather Roundup
Issued by NWS

Home | Current Version | Previous Version | Graphics & Text | Print | Product List | Glossary On
Versions: 1 2 3 4 5 6 7 8 9 10 11 12 13 14 15 16 17 18 19 20 21 22 23 24 25 26 27 28 29 30 31 32 33 34 35 36 37 38 39 40 41 42 43 44 45 46 47 48 49 50
000
ASUS45 KSLC 170010
RWRUT

UTAH REGIONAL WEATHER ROUNDUP
NATIONAL WEATHER SERVICE SALT LAKE CITY UT
600 PM MDT TUE SEP 16 2014

UTZ001>011-023>025-170100-

NORTHERN UTAH

CITY           SKY/WX    TMP DP  RH WIND       PRES   REMARKS
HILL AFB       SUNNY     88  41  19 W6        30.02F
LOGAN          SUNNY     88  46  23 S8        29.99F
OGDEN          SUNNY     90  38  16 CALM      29.99F
PROVO AIRPORT  MOSUNNY   88  52  29 VRB3      30.01F
SALT LAKE CITY MOSUNNY   92  37  14 N3        29.96F
VERNAL         MOSUNNY   84  43  23 CALM      30.09F
WENDOVER       MOSUNNY   91  37  15 SE10      29.94F
HEBER CITY     SUNNY     84  36  17 SW7       30.09S
WEST JORDAN    SUNNY     88  39  18 CALM      30.01F

$$

UTZ012>022-026-027-170100-

SOUTHERN UTAH

CITY           SKY/WX    TMP DP  RH WIND       PRES   REMARKS
BRYCE CANYON   MOSUNNY   75  40  28 SE10      30.26F
CEDAR CITY     MOSUNNY   85  36  17 CALM      30.07F
MILFORD        SUNNY     91  32  12 S9        30.01F
MOAB/CYNLANDS  SUNNY     91  37  15 CALM      30.00F
PRICE          MOSUNNY   86  32  14 S7        30.12F
ST GEORGE      CLEAR     97  45  16 N6        29.86F HX  93
KANAB            N/A     88  43  20 NE10      30.05F

$$

REGIONAL REPORTS     COLORADO/ARIZONA

CITY           SKY/WX    TMP DP  RH WIND       PRES   REMARKS
CRAIG, CO      SUNNY     81  32  17 CALM      30.17F
GRAND JUNCTION MOSUNNY   84  42  22 W7        30.06F
RIFLE          MOSUNNY   81  37  20 CALM      30.11F
MONTROSE       SUNNY     84  38  19 NW8       30.14F
CORTEZ         MOSUNNY   73  55  53 NW5       30.15F
PAGE, AZ       MOSUNNY   89  45  21 SE23G32   30.01S
GRAND CANYON   PTSUNNY   76  46  34 NE10      30.19F
KINGMAN        PTSUNNY   80  59  48 E20G25    29.97R
FLAGSTAFF      CLOUDY    65  55  70 SW7       30.24F

$$

REGIONAL REPORTS    NEVADA/IDAHO/WYOMING

CITY           SKY/WX    TMP DP  RH WIND       PRES   REMARKS
LAS VEGAS, NV  CLOUDY    98  57  25 S6        29.76F HX  97
ELY            SUNNY     84  37  18 SW12      30.12F
ELKO           SUNNY     89  32  13 SW8       29.98F
POCATELLO, ID  MOSUNNY   90  38  16 NW8       29.97F
BURLEY         SUNNY     89  41  18 NW3       29.93F
EVANSTON, WY   MOSUNNY   77  37  23 W12       30.22S
ROCK SPRINGS   CLOUDY    74  38  27 W14G24    30.19S

$$


USA.gov is the U.S. government's official web portal to all federal, state and local government web resources and services.